sat.trackr.live / text

‹ back to catalog

STARLINK-30596

NORAD 58110 · 2023-161P

PAYLOAD ACTIVE UNKNOWN

§ Identity

Operator
Country
US
Launch date
2023-10-21
Launch site
AFWTR
Launch vehicle
Mass (kg)
RCS (m²)

Purposes: comms

External: N2YO · Heavens-Above · Gunter

§ Orbital elements

Epoch: 2026-09-20T16:31:08.006304Z

Period
93.85 min
Inclination
53.1619°
Eccentricity
0.0001185
Mean motion
15.34396846 rev/d
Perigee alt
461.9 km
Apogee alt
463.5 km
Semi-major
6,840.8 km
B*
4.3581e-5
RAAN
337.1683°
Arg perigee
78.0361°
Mean anomaly
282.0774°
Rev number
16,431

§ Raw data

STARLINK-305961 58110U 23161P   26263.68828711  .00001096  00000+0  43581-4 0  99982 58110  53.1619 337.1683 0001185  78.0361 282.0774 15.34396846164317

JSON: /api/v1/satellites/58110 · /tle

For live sub-satellite position, see the globe view (requires WebGL).

§ Visibility from observer

Set your observer location to see the next 7 days of passes ≥ 10°. The values pass through the URL so the page stays shareable.

No JS? Fill the form by hand. The geolocation button needs JavaScript.